Temperature
19 18 18 18 18 18 17 17 17 17 17 17 17 17 17 17 17 17 17 17 17 17 16 16 16 16 16 16 15 15 15 15 15 15 15 15 14 14 14 14 14 14 13
18 18 18 18 18 17 17 17 17 17 17 17 17 17 17 17 17 17 17 17 16 16 16 16 16 16 15 15 15 15 15 15 15 15 15 14 14 14 14 13 13 13 13
18 18 17 17 17 17 17 17 17 17 17 17 17 17 17 17 17 17 17 16 16 16 16 16 15 15 15 15 15 15 14 14 14 14 14 14 14 13 13 13 13 12 12
17 17 17 17 17 17 17 16 16 17 17 17 17 17 17 16 16 16 16 16 16 16 16 15 15 15 15 15 15 14 14 14 14 14 14 14 13 13 13 12 12 12 12
17 17 16 16 16 16 16 16 16 16 16 16 16 16 16 16 16 16 16 16 15 15 15 15 15 15 15 15 14 14 14 14 14 14 14 13 13 13 12 12 12 12 12
17 16 16 16 16 16 16 16 16 16 16 16 16 16 16 16 16 16 16 15 15 15 15 15 15 14 14 14 14 14 14 14 14 14 13 13 13 12 12 12 12 11 11
16 16 16 16 16 16 16 16 16 16 16 16 16 16 16 16 16 15 15 15 15 15 15 15 14 14 14 14 14 14 14 14 13 13 13 13 12 12 12 11 11 11 11
15 15 15 15 15 15 16 16 16 15 15 15 15 15 15 15 15 15 15 15 15 15 14 14 14 14 14 14 14 14 14 13 13 13 13 12 12 11 11 11 11 11 11
14 15 15 15 15 15 15 15 15 15 15 15 15 15 15 15 15 15 15 15 14 14 14 14 14 14 14 14 13 14 13 13 13 13 12 12 12 11 11 11 11 11 11
14 14 14 15 15 15 15 15 15 15 15 15 15 15 15 14 14 14 14 14 14 14 14 14 13 13 13 13 13 13 13 13 13 12 12 12 11 11 11 11 11 11 10
13 13 13 14 14 14 14 14 15 15 15 14 14 14 14 14 14 14 14 14 14 14 14 13 13 13 13 13 13 13 13 13 13 12 12 11 11 11 11 11 11 10 10
13 13 13 13 13 14 14 14 14 14 14 14 14 14 14 14 14 14 13 13 13 13 13 13 13 13 13 13 13 13 13 12 12 12 12 11 11 11 10 10 10 10 10
12 12 12 12 13 13 13 13 14 14 14 14 14 14 13 13 13 13 13 13 13 13 13 13 13 13 12 12 12 12 12 12 12 12 12 11 11 11 10 10 10 10 10
11 12 12 12 12 12 12 13 13 13 13 13 13 13 13 13 13 13 13 13 13 13 13 13 13 12 12 12 12 12 12 12 12 12 11 11 11 10 10 10 10 10 10
10 11 11 12 12 12 12 12 12 13 13 13 13 13 13 13 13 13 12 12 12 13 12 12 12 12 12 12 12 12 12 12 12 11 11 11 11 10 10 10 10 9 9
10 11 11 11 11 12 12 12 12 12 12 12 12 12 12 12 12 12 12 12 12 12 12 12 12 12 12 12 12 12 12 11 11 11 11 11 11 10 10 10 10 9 9
10 10 10 10 11 11 11 11 11 11 12 12 12 12 12 12 12 12 12 12 12 12 12 12 12 12 12 11 11 11 11 11 11 11 11 10 10 10 10 10 10 9 9
9 10 10 10 10 11 11 11 11 11 11 11 11 11 11 12 12 11 12 11 12 11 11 11 12 11 11 11 11 11 11 11 11 11 10 10 10 10 10 10 9 9 9
9 9 10 10 10 10 10 10 11 11 11 11 11 11 11 11 11 11 11 11 11 11 11 11 11 11 11 11 11 11 11 11 10 10 10 10 10 10 10 9 9 9 9
9 9 9 9 9 10 10 10 10 10 10 10 10 11 11 10 10 11 11 11 11 11 11 11 11 11 11 11 11 10 10 10 10 10 10 10 10 10 9 9 9 9 9
9 9 9 9 9 9 9 9 9 9 10 10 10 10 10 10 10 10 10 10 11 11 11 10 10 10 10 10 10 10 10 10 10 10 10 10 10 10 9 9 9 9 9
8 8 9 9 9 9 9 9 9 9 9 9 9 9 10 10 10 10 10 10 10 10 10 10 10 10 10 10 10 9 9 9 9 10 10 10 10 9 9 9 9 9 9
8 8 8 8 9 9 9 9 9 9 9 9 9 9 9 9 9 9 10 10 10 10 10 10 10 10 10 10 10 10 9 9 9 9 9 9 9 9 9 9 9 9 9
8 8 8 8 8 9 9 8 8 8 8 8 8 9 9 9 9 9 9 9 10 10 10 10 10 10 10 10 9 10 10 10 9 9 9 9 9 9 9 9 9 9 8
8 8 8 8 8 8 8 8 8 8 8 8 8 8 9 9 9 9 9 9 9 10 10 10 10 10 10 10 9 9 10 10 10 10 9 9 9 9 9 9 9 9 8
8 7 7 7 8 8 8 8 8 8 8 8 8 8 8 8 8 8 9 9 9 9 9 10 10 10 10 10 9 9 10 10 10 10 10 9 9 9 9 9 9 9 8
Wind_Speed
4 3 7 11 13 14 15 15 16 16 15 16 16 17 18 19 18 18 18 17 17 16 16 16 17 17 16 17 17 16 16 15 15 15 15 15 15 14 14 13 13 13 16
4 2 5 9 12 13 15 15 16 16 16 15 16 17 17 18 19 18 18 17 17 17 16 17 17 17 17 17 16 16 15 15 15 14 14 13 13 13 13 13 13 12 16
3 2 1 5 9 12 13 14 15 15 16 16 16 16 17 18 18 18 18 17 17 17 16 16 16 16 16 16 16 16 15 15 14 13 12 10 11 13 13 13 14 15 16
3 3 2 1 5 10 12 13 15 15 15 16 16 16 16 17 17 18 18 17 17 16 16 16 16 16 16 16 16 15 15 14 14 12 10 9 9 12 13 13 14 15 15
4 4 3 1 2 6 10 11 13 14 15 15 15 16 16 17 17 17 17 17 17 16 16 16 16 16 16 16 16 15 15 14 13 11 9 9 9 12 12 13 14 14 14
4 5 4 2 2 3 6 8 10 12 14 14 15 15 16 16 16 16 16 17 17 17 17 17 16 16 16 16 16 15 15 14 12 10 8 8 8 10 12 13 13 13 13
4 4 5 4 1 2 4 7 8 9 11 13 14 15 16 16 17 16 16 16 17 17 17 17 17 16 16 16 16 16 15 14 12 9 7 7 8 11 13 13 12 12 12
4 4 4 4 3 1 2 5 7 8 9 10 12 14 15 15 16 16 16 16 16 18 18 18 17 17 16 16 16 16 15 13 10 8 7 7 8 11 12 12 12 12 11
4 4 4 3 2 1 1 3 6 6 7 8 9 11 12 14 15 16 16 17 17 17 18 19 18 17 16 16 16 16 15 13 10 7 6 6 9 10 11 11 10 10 10
3 3 3 3 2 1 2 2 4 6 6 7 8 9 10 12 14 14 15 16 16 17 18 19 18 17 16 16 16 16 15 12 9 7 5 6 9 9 10 10 9 9 9
4 3 3 3 3 2 1 2 3 6 7 7 7 7 8 8 10 12 13 15 15 16 18 19 18 17 16 15 16 16 13 10 9 6 5 7 9 9 9 9 9 8 8
6 5 3 3 2 2 2 1 2 4 6 5 6 6 6 6 7 8 11 14 15 15 17 18 18 16 13 11 13 14 10 10 8 6 5 7 8 8 9 9 8 7 7
6 5 4 4 3 2 1 1 1 2 4 4 6 6 6 6 6 7 7 9 11 12 10 12 12 10 10 9 9 9 9 8 6 5 6 7 8 8 9 9 8 7 6
6 6 5 5 3 3 2 1 2 2 3 4 5 7 7 4 4 5 5 5 6 7 7 7 7 9 10 10 10 9 9 7 6 6 6 7 8 8 8 9 8 7 6
7 7 6 6 5 3 3 2 2 3 4 5 6 7 8 5 4 4 4 5 6 7 7 7 7 8 8 8 9 9 8 8 7 7 6 7 7 8 8 9 8 7 6
8 7 6 6 6 5 4 4 4 4 5 6 6 7 8 7 6 5 5 5 5 7 8 8 8 8 7 7 8 8 8 8 7 7 6 6 7 7 8 9 8 7 6
9 7 7 6 6 5 4 5 4 4 5 5 6 8 9 9 8 6 5 5 6 7 8 7 7 6 7 7 7 7 7 7 7 6 6 6 6 7 8 9 8 7 6
8 7 7 5 5 6 5 5 4 4 5 5 6 8 9 10 10 8 6 6 7 7 6 6 7 6 6 7 6 6 6 6 6 7 6 6 6 6 7 8 8 7 7
7 6 6 5 6 7 6 5 5 4 5 6 6 7 9 10 11 9 7 6 8 6 6 7 5 6 7 7 7 6 5 5 5 6 6 6 7 6 6 7 7 7 6
6 6 6 6 6 6 5 4 4 4 4 5 6 7 9 9 11 9 7 7 8 7 6 7 7 5 6 7 6 5 4 4 4 5 6 5 6 7 7 6 5 6 6
5 6 6 6 5 5 4 4 4 5 4 5 6 8 10 10 11 9 7 7 7 8 8 8 6 6 5 6 5 3 1 1 4 4 4 4 5 6 7 7 6 5 5
5 6 6 6 6 5 5 6 5 5 5 6 6 7 9 10 11 10 9 8 8 7 8 9 8 6 5 6 5 5 2 1 3 4 4 5 5 4 5 7 7 6 5
6 6 6 7 6 6 6 4 3 2 2 4 5 6 8 10 11 11 11 9 9 9 10 10 10 9 7 6 6 6 5 5 2 2 4 5 5 4 4 5 6 7 7
7 6 7 7 7 6 6 6 7 6 6 6 7 7 8 9 11 11 11 10 10 9 10 11 10 8 9 8 6 3 3 4 4 3 2 3 5 5 5 4 5 6 7
6 6 7 7 6 5 6 8 8 7 7 5 6 7 8 8 10 10 10 10 10 9 11 11 10 10 9 8 7 5 3 2 3 4 4 4 3 4 5 5 4 5 7
6 6 6 6 6 5 6 8 9 9 8 7 8 8 8 7 8 10 10 10 9 9 11 11 11 12 11 10 8 7 6 5 5 4 4 6 5 3 4 4 4 5 6
Wind_Direction
309 276 209 184 173 169 168 165 160 157 154 151 149 147 147 147 146 145 144 143 142 140 138 136 135 132 127 123 119 115 111 109 106 102 102 103 101 100 96 94 91 85 89
294 272 205 189 178 174 173 170 164 160 157 156 154 152 151 150 149 148 147 146 145 143 140 137 135 132 127 122 118 115 112 110 108 104 101 102 104 105 102 100 96 93 91
356 351 195 188 186 182 179 175 169 164 163 162 161 158 156 154 154 153 151 150 148 145 141 138 135 132 129 126 122 119 116 114 110 105 101 98 105 109 105 101 97 95 93
1 7 353 167 182 187 185 180 174 171 169 169 167 165 163 160 158 158 156 154 151 147 144 140 137 134 132 129 127 124 120 117 113 107 94 96 104 110 106 101 100 95 93
9 5 353 54 143 178 185 183 180 177 175 174 173 172 169 167 164 163 162 159 155 150 146 142 140 138 136 134 133 129 126 122 116 105 95 96 105 112 109 104 101 97 94
5 2 358 17 178 163 176 177 178 180 181 180 178 177 175 173 170 168 166 163 160 155 151 148 146 144 141 139 137 134 130 125 114 104 99 100 109 118 113 108 103 99 96
347 353 1 17 46 187 188 183 175 177 183 184 183 182 181 177 175 173 170 168 165 161 157 154 153 148 145 145 142 138 135 129 117 110 106 105 114 120 116 111 106 103 99
336 341 348 359 11 359 207 182 178 180 183 186 189 189 183 178 177 175 173 172 171 166 162 160 158 154 151 149 147 144 140 134 125 117 114 115 122 122 118 115 112 108 104
334 339 337 338 341 310 250 195 178 177 184 186 187 189 187 181 179 179 176 176 176 172 166 163 161 159 157 154 152 149 144 139 130 127 128 129 131 129 124 122 117 113 108
321 326 320 330 331 299 215 213 184 177 180 185 186 183 182 184 185 182 181 180 179 176 172 167 165 163 162 158 156 152 148 140 134 133 135 143 144 139 132 128 122 117 112
298 298 305 315 317 322 236 219 200 180 179 179 178 175 176 178 182 182 183 183 182 178 177 172 169 166 162 160 157 154 148 140 141 140 149 153 149 146 142 137 129 123 118
287 286 277 271 292 304 273 207 218 190 180 176 173 168 163 164 171 176 181 185 185 181 179 178 171 164 152 149 154 151 145 146 145 151 169 165 159 154 148 143 139 133 128
267 274 276 256 249 259 261 212 200 197 173 169 168 163 156 152 159 164 170 178 180 177 171 171 163 149 144 144 145 149 150 151 153 161 176 174 172 168 160 155 153 148 140
266 268 276 251 235 239 231 226 211 192 178 173 175 170 159 157 162 165 166 168 167 164 158 152 150 149 149 151 153 154 156 156 161 169 183 181 180 179 174 167 164 159 150
267 264 273 266 233 225 224 214 236 204 193 183 179 180 174 172 179 177 176 169 170 164 163 164 160 160 158 157 159 161 165 166 169 172 183 188 187 189 185 176 171 169 163
270 262 255 272 242 220 223 211 217 209 188 183 184 187 186 180 179 183 185 181 181 174 170 171 169 168 168 165 165 167 171 172 175 177 183 193 194 195 197 188 180 178 179
261 260 250 260 259 231 228 223 213 206 192 193 193 192 191 188 183 183 188 191 186 175 169 167 163 163 167 166 167 169 173 176 177 181 185 190 197 203 204 197 192 191 192
255 255 252 261 270 244 232 233 212 202 199 195 196 194 197 196 191 185 188 197 185 176 176 174 173 173 174 172 170 175 175 176 182 186 187 191 194 201 204 201 201 201 200
252 253 254 255 260 242 230 226 214 200 205 198 200 199 200 201 197 190 192 194 184 182 188 184 179 180 179 176 173 172 177 180 183 186 188 195 197 196 199 201 202 205 210
257 254 253 252 254 242 217 210 212 202 209 201 203 208 204 204 201 195 196 192 187 187 192 189 178 185 181 173 167 164 176 185 182 189 194 197 199 198 196 196 198 207 211
260 256 253 251 254 243 207 197 211 208 213 215 216 211 208 206 203 199 200 193 192 195 194 188 177 177 181 166 146 140 112 183 195 202 194 192 198 200 192 192 193 197 211
268 263 256 249 247 243 220 205 211 211 214 217 216 216 211 209 206 204 200 198 198 197 192 191 178 174 180 175 157 148 155 234 231 206 196 199 200 191 191 194 192 194 201
270 262 263 260 256 247 225 210 218 214 221 216 219 221 216 214 212 209 206 202 202 199 197 193 187 180 183 191 179 163 166 200 196 210 203 198 194 193 194 192 195 198 199
269 265 261 260 255 249 222 205 206 215 230 232 226 226 221 219 215 211 207 204 204 205 200 196 193 190 181 187 193 196 179 157 161 182 211 199 195 199 199 196 198 199 199
274 270 269 267 262 253 227 214 210 219 227 230 230 227 224 223 218 213 208 208 208 208 203 197 195 192 192 191 187 176 171 161 149 161 199 201 204 208 200 197 195 198 199
298 285 277 269 266 255 236 223 215 220 224 226 231 230 228 225 220 216 212 210 212 209 203 200 200 196 197 196 195 188 178 172 178 168 187 197 207 210 196 194 196 199 200
Height
1478 1479 1480 1481 1482 1484 1486 1488 1489 1491 1493 1495 1497 1499 1500 1502 1503 1505 1506 1507 1508 1509 1511 1512 1513 1514 1515 1515 1516 1517 1518 1518 1519 1520 1520 1521 1521 1522 1522 1522 1523 1523 1523
1479 1479 1480 1482 1483 1484 1486 1488 1490 1491 1493 1495 1497 1499 1500 1502 1503 1504 1506 1507 1508 1510 1511 1512 1513 1514 1515 1516 1517 1517 1518 1519 1520 1520 1521 1521 1522 1522 1523 1523 1523 1524 1524
1478 1479 1480 1482 1483 1485 1486 1488 1489 1491 1493 1495 1497 1498 1500 1501 1503 1504 1505 1507 1508 1510 1511 1512 1513 1514 1515 1516 1517 1518 1519 1519 1520 1521 1521 1522 1522 1523 1524 1524 1524 1525 1525
1479 1479 1480 1481 1483 1485 1486 1488 1489 1491 1493 1494 1496 1498 1499 1501 1502 1504 1505 1506 1508 1509 1511 1512 1513 1514 1515 1516 1517 1518 1519 1519 1520 1521 1522 1522 1523 1524 1524 1525 1525 1525 1526
1479 1479 1480 1481 1482 1484 1486 1487 1489 1490 1492 1494 1495 1497 1499 1500 1501 1503 1504 1506 1507 1509 1510 1511 1512 1514 1515 1516 1517 1518 1519 1520 1520 1521 1522 1523 1524 1524 1525 1526 1526 1526 1526
1478 1479 1480 1481 1481 1483 1485 1486 1488 1489 1491 1493 1494 1496 1497 1499 1500 1502 1503 1505 1507 1508 1509 1511 1512 1513 1514 1516 1517 1518 1519 1520 1521 1521 1522 1523 1524 1525 1525 1526 1527 1527 1527
1477 1478 1478 1479 1480 1481 1483 1485 1486 1488 1490 1491 1493 1494 1496 1497 1499 1500 1502 1504 1505 1507 1508 1510 1511 1512 1514 1515 1516 1517 1518 1520 1521 1522 1523 1524 1525 1526 1526 1526 1527 1527 1528
1476 1477 1477 1478 1479 1480 1481 1483 1484 1486 1488 1489 1491 1492 1494 1495 1497 1499 1500 1502 1504 1505 1507 1508 1510 1511 1513 1515 1516 1517 1518 1519 1521 1522 1523 1524 1525 1526 1526 1527 1527 1528 1528
1475 1475 1475 1476 1477 1478 1479 1480 1482 1484 1485 1487 1489 1490 1492 1493 1495 1497 1498 1500 1502 1504 1505 1507 1509 1510 1512 1513 1515 1516 1518 1519 1520 1522 1523 1524 1525 1526 1527 1527 1527 1527 1528
1473 1473 1473 1473 1474 1475 1476 1477 1479 1481 1483 1485 1486 1488 1489 1491 1493 1495 1496 1498 1500 1502 1503 1505 1507 1509 1511 1512 1514 1515 1517 1518 1520 1521 1523 1524 1525 1526 1526 1527 1527 1527 1527
1470 1470 1470 1470 1471 1472 1473 1474 1476 1478 1480 1481 1483 1485 1487 1488 1490 1492 1494 1496 1497 1499 1501 1503 1505 1507 1509 1511 1512 1514 1516 1518 1519 1521 1522 1523 1525 1525 1526 1526 1527 1527 1527
1465 1466 1466 1467 1467 1468 1469 1471 1472 1474 1476 1478 1480 1482 1483 1485 1487 1489 1491 1493 1495 1497 1499 1501 1503 1504 1507 1509 1511 1513 1515 1517 1518 1520 1521 1523 1524 1525 1525 1526 1526 1526 1526
1461 1461 1462 1463 1463 1464 1465 1466 1468 1470 1472 1474 1476 1478 1480 1482 1484 1485 1487 1490 1492 1494 1496 1498 1500 1502 1504 1507 1509 1511 1513 1515 1517 1518 1520 1521 1523 1524 1524 1525 1525 1526 1526
1457 1456 1458 1458 1459 1460 1461 1462 1463 1465 1467 1470 1472 1474 1476 1478 1480 1482 1484 1486 1488 1491 1492 1495 1497 1499 1501 1504 1507 1509 1511 1513 1515 1517 1518 1520 1521 1522 1523 1524 1524 1525 1525
1453 1452 1453 1454 1455 1456 1457 1458 1459 1461 1463 1465 1467 1470 1472 1474 1476 1477 1480 1482 1484 1487 1489 1491 1494 1496 1499 1501 1504 1507 1509 1511 1513 1515 1517 1518 1519 1520 1522 1522 1523 1523 1523
1448 1448 1448 1449 1450 1451 1452 1453 1455 1456 1458 1460 1462 1465 1468 1470 1471 1473 1476 1478 1480 1483 1485 1488 1490 1493 1495 1498 1501 1504 1507 1509 1511 1513 1514 1516 1517 1519 1520 1521 1521 1522 1522
1445 1444 1444 1445 1446 1446 1447 1449 1450 1451 1453 1455 1458 1460 1463 1465 1467 1469 1471 1474 1477 1479 1482 1484 1486 1489 1492 1495 1497 1501 1504 1506 1508 1510 1512 1513 1515 1516 1518 1519 1519 1520 1520
1440 1440 1440 1441 1441 1443 1443 1443 1445 1447 1449 1451 1453 1456 1458 1460 1463 1465 1467 1470 1473 1475 1478 1480 1482 1485 1488 1491 1493 1497 1500 1503 1505 1507 1509 1511 1512 1514 1515 1516 1517 1518 1518
1436 1436 1436 1436 1437 1438 1438 1440 1440 1442 1444 1446 1448 1451 1453 1455 1458 1460 1462 1465 1468 1471 1473 1476 1478 1481 1484 1487 1490 1493 1496 1499 1501 1504 1506 1508 1509 1511 1512 1514 1515 1515 1516
1432 1432 1432 1433 1433 1433 1434 1435 1436 1437 1439 1442 1443 1445 1447 1450 1452 1455 1457 1460 1463 1466 1469 1471 1473 1477 1480 1483 1486 1489 1492 1495 1498 1500 1502 1504 1506 1508 1509 1510 1512 1512 1513
1428 1428 1427 1427 1428 1429 1429 1430 1431 1432 1434 1436 1438 1440 1442 1444 1447 1449 1452 1455 1458 1460 1463 1466 1469 1472 1475 1479 1482 1485 1489 1491 1493 1496 1498 1500 1502 1504 1506 1507 1508 1509 1510
1424 1423 1423 1423 1423 1424 1424 1425 1427 1427 1429 1431 1432 1434 1436 1438 1441 1443 1446 1449 1452 1455 1458 1461 1464 1466 1470 1473 1476 1480 1484 1488 1488 1491 1493 1495 1498 1500 1502 1503 1505 1506 1506
1420 1419 1419 1418 1418 1419 1420 1421 1422 1423 1424 1425 1427 1428 1431 1433 1435 1438 1440 1443 1446 1449 1452 1455 1459 1462 1464 1468 1471 1474 1478 1479 1483 1485 1487 1490 1493 1495 1497 1499 1501 1502 1503
1417 1416 1415 1414 1413 1414 1415 1415 1416 1417 1418 1420 1422 1423 1425 1427 1429 1431 1434 1437 1440 1443 1446 1450 1453 1457 1460 1462 1466 1469 1472 1473 1476 1479 1483 1485 1488 1490 1493 1495 1497 1498 1499
1414 1412 1410 1409 1409 1409 1410 1410 1411 1412 1414 1415 1417 1418 1419 1420 1423 1425 1428 1431 1433 1436 1440 1444 1447 1451 1454 1456 1459 1462 1466 1468 1470 1472 1475 1479 1483 1485 1487 1490 1492 1493 1494
1410 1408 1406 1405 1405 1404 1404 1405 1406 1407 1408 1409 1410 1411 1412 1414 1416 1419 1422 1425 1428 1430 1434 1437 1441 1445 1448 1451 1454 1457 1460 1462 1465 1467 1470 1473 1476 1479 1482 1484 1486 1488 1489